Weather History for Jacksonville Craig, FL

Change the Weather History Date:

Monday, October 8, 2012

  Actual Average Record
Temperature  
Mean Temperature 80 °F -  
Max Temperature 86 °F 79 °F 89 °F (2014)
Min Temperature 70 °F 65 °F 51 °F (2010)
Cooling Degree Days 14    
Growing Degree Days 30 (Base 50)    
Moisture  
Dew Point 71 °F    
Average Humidity 81    
Maximum Humidity 91    
Minimum Humidity 57    
Precipitation  
Precipitation 0.23 in - - ()
Sea Level Pressure  
Sea Level Pressure 29.99 in    
Wind  
Wind Speed 3 mph (West)    
Max Wind Speed 10 mph    
Max Gust Speed 21 mph    
Visibility 9 miles    
Events Rain , Thunderstorm    
Averages and records for this station are not official NWS values.
T = Trace of Precipitation, MM = Missing Value Source: NWS Daily Summary

Daily Weather History Graph

Daily Weather History Graph

Search for Another Location

Airport:

Trip Planner

Search our weather history database for the weather conditions in past years. The results will help you decide how hot, cold, wet, or windy it might be!

Date:

Astronomy

Oct. 08, 2012 Rise Set
Actual Time 7:24 AM EDT 7:02 PM EDT
Civil Twilight 6:59 AM EDT 7:26 PM EDT
Nautical Twilight 6:32 AM EDT 7:54 PM EDT
Astronomical Twilight 6:04 AM EDT 8:22 PM EDT
Moon 12:29 AM EDT (10/8) 2:25 PM EDT (10/8)
Length of Visible Light 12h 26m
Length of Day
11h 38m
Waning Gibbous, 46% of the Moon is Illuminated
Oct 8
Waning Gibbous
Oct 15
New
Oct 21
First Quarter
Oct 29
Full
Nov 6
Last Quarter

Hourly Weather History & Observations

Time (EDT) Temp. Heat Index Dew Point Humidity Pressure Visibility Wind Dir Wind Speed Gust Speed Precip Events Conditions
12:53 AM 75.9 °F - 72.0 °F 87% 29.99 in 10.0 mi Calm Calm - N/A   Clear
1:53 AM 75.0 °F - 72.0 °F 90% 29.99 in 10.0 mi Calm Calm - N/A   Clear
2:21 AM 75.2 °F - 71.6 °F 89% 29.99 in 10.0 mi Calm Calm - N/A   Mostly Cloudy
2:40 AM 75.2 °F - 71.6 °F 89% 29.98 in 10.0 mi Calm Calm - N/A   Partly Cloudy
2:53 AM 75.0 °F - 72.0 °F 90% 29.97 in 10.0 mi Calm Calm - N/A   Clear
3:53 AM 73.9 °F - 71.1 °F 91% 29.96 in 10.0 mi Calm Calm - N/A   Clear
4:53 AM 73.0 °F - 70.0 °F 90% 29.96 in 10.0 mi Calm Calm - N/A   Clear
5:53 AM 73.0 °F - 70.0 °F 90% 29.98 in 10.0 mi Calm Calm - N/A   Clear
6:53 AM 73.0 °F - 70.0 °F 90% 29.99 in 10.0 mi Calm Calm - N/A   Clear
7:53 AM 73.9 °F - 70.0 °F 87% 30.02 in 10.0 mi Calm Calm - N/A   Clear
8:53 AM 77.0 °F - 73.0 °F 88% 30.02 in 10.0 mi Calm Calm - N/A   Clear
9:53 AM 81.0 °F 86.2 °F 73.9 °F 79% 30.04 in 10.0 mi Calm Calm - N/A   Clear
10:53 AM 82.0 °F 86.7 °F 72.0 °F 71% 30.04 in 10.0 mi West 4.6 mph - N/A   Partly Cloudy
11:53 AM 82.9 °F 88.0 °F 72.0 °F 69% 30.04 in 10.0 mi SSW 4.6 mph - N/A   Mostly Cloudy
12:03 PM 82.4 °F 87.2 °F 71.6 °F 70% 30.03 in 10.0 mi South 5.8 mph - N/A   Mostly Cloudy
12:16 PM 84.2 °F 89.6 °F 71.6 °F 66% 30.03 in 10.0 mi South 5.8 mph - N/A   Scattered Clouds
12:53 PM 84.0 °F 89.0 °F 71.1 °F 65% 30.02 in 10.0 mi South 4.6 mph - N/A   Scattered Clouds
1:53 PM 84.9 °F 90.1 °F 71.1 °F 63% 29.97 in 10.0 mi WSW 6.9 mph - N/A   Scattered Clouds
2:53 PM 86.0 °F 90.1 °F 69.1 °F 57% 29.96 in 10.0 mi SW 8.1 mph - N/A   Mostly Cloudy
3:53 PM 84.9 °F 89.4 °F 70.0 °F 61% 29.94 in 10.0 mi SW 5.8 mph - N/A   Partly Cloudy
4:53 PM 82.0 °F 87.9 °F 73.9 °F 76% 29.94 in 10.0 mi ESE 3.5 mph - N/A   Scattered Clouds
5:26 PM 80.6 °F 85.4 °F 73.4 °F 79% 29.96 in 10.0 mi SSW 3.5 mph - 0.00 in Rain , Thunderstorm Light Thunderstorms and Rain
5:38 PM 80.6 °F 85.4 °F 73.4 °F 79% 29.95 in 10.0 mi West 3.5 mph - 0.00 in Rain , Thunderstorm Light Thunderstorms and Rain
5:53 PM 81.0 °F 84.9 °F 71.1 °F 72% 29.96 in 10.0 mi West 5.8 mph - 0.00 in Thunderstorm Thunderstorm
6:01 PM 80.6 °F 84.6 °F 71.6 °F 74% 29.97 in 10.0 mi WSW 6.9 mph - 0.00 in Rain , Thunderstorm Light Thunderstorms and Rain
6:17 PM 75.2 °F - 71.6 °F 89% 29.98 in 6.0 mi West 10.4 mph - 0.03 in Rain , Thunderstorm Light Thunderstorms and Rain
6:24 PM 75.2 °F - 71.6 °F 89% 29.98 in 10.0 mi WSW 10.4 mph 20.7 mph 0.04 in Rain , Thunderstorm Light Thunderstorms and Rain
6:42 PM 75.2 °F - 69.8 °F 83% 29.99 in 2.5 mi WNW 8.1 mph - 0.21 in Rain , Thunderstorm Heavy Thunderstorms and Rain
6:47 PM 75.2 °F - 71.6 °F 89% 29.99 in 4.0 mi North 4.6 mph - 0.22 in Rain , Thunderstorm Heavy Thunderstorms and Rain
6:53 PM 75.0 °F - 71.1 °F 87% 29.99 in 7.0 mi NNW 5.8 mph - 0.23 in Rain , Thunderstorm Thunderstorms and Rain
7:04 PM 75.2 °F - 69.8 °F 83% 29.99 in 10.0 mi North 6.9 mph - 0.00 in   Overcast
7:41 PM 75.2 °F - 71.6 °F 89% 29.99 in 10.0 mi NNE 5.8 mph - 0.00 in   Mostly Cloudy
7:53 PM 75.0 °F - 71.1 °F 87% 30.00 in 10.0 mi NNE 8.1 mph - 0.00 in   Mostly Cloudy
8:53 PM 75.0 °F - 71.1 °F 87% 30.00 in 10.0 mi NNE 6.9 mph - N/A   Clear
10:53 PM 73.9 °F - 70.0 °F 87% 30.04 in 10.0 mi NNE 9.2 mph - N/A   Overcast
11:53 PM 70.0 °F - 66.9 °F 90% 30.05 in 8.0 mi NNE 9.2 mph 18.4 mph N/A   Overcast